This is the latest recevied weather packets stored in our database for station/object IT9RID. If no packets are shown the sender has not sent any weather packets the latest 10 day(s).
| Time | Temp. | Humidity | Pressure | Rain* | Wind** | Luminosity | Snow |
|---|---|---|---|---|---|---|---|
| 1777549350 | 21.11° C | 69% | 1014.8 hPa | 0 mm | - | - | - |
| 1777548749 | 21.67° C | 69% | 1014.5 hPa | 0 mm | - | - | - |
| 1777548149 | 21.67° C | 71% | 1014.4 hPa | 0 mm | - | - | - |
| 1777547549 | 21.11° C | 74% | 1014.5 hPa | 0 mm | - | - | - |
| 1777546949 | 21.11° C | 74% | 1014.5 hPa | 0 mm | - | - | - |
| 1777546349 | 20.56° C | 73% | 1014.5 hPa | 0 mm | - | - | - |
| 1777545749 | 21.11° C | 73% | 1014.4 hPa | 0 mm | - | - | - |
| 1777545148 | 21.11° C | 74% | 1014.5 hPa | 0 mm | - | - | - |
| 1777544548 | 21.11° C | 75% | 1014.6 hPa | 0 mm | - | - | - |
| 1777543948 | 20.56° C | 75% | 1014.8 hPa | 0 mm | - | - | - |
| 1777543349 | 20° C | 76% | 1014.7 hPa | 0 mm | - | - | - |
| 1777542748 | 20° C | 77% | 1014.8 hPa | 0 mm | - | - | - |
| 1777542148 | 20° C | 77% | 1014.9 hPa | 0 mm | - | - | - |
| 1777541547 | 20° C | 76% | 1015 hPa | 0 mm | - | - | - |
| 1777540947 | 20° C | 75% | 1015.2 hPa | 0 mm | - | - | - |
| 1777540347 | 20° C | 75% | 1015.3 hPa | 0 mm | - | - | - |
| 1777539747 | 20° C | 75% | 1015.4 hPa | 0 mm | - | - | - |
| 1777539147 | 20° C | 75% | 1015.3 hPa | 0 mm | - | - | - |
| 1777538548 | 20° C | 74% | 1015 hPa | 0 mm | - | - | - |
| 1777537946 | 20° C | 73% | 1014.6 hPa | 0 mm | - | - | - |
| 1777537346 | 20° C | 73% | 1014.3 hPa | 0 mm | - | - | - |
| 1777536749 | 20° C | 71% | 1014.8 hPa | 0 mm | - | - | - |
| 1777536146 | 20° C | 72% | 1015.1 hPa | 0 mm | - | - | - |
| 1777535546 | 20° C | 73% | 1015.1 hPa | 0 mm | - | - | - |
| 1777534946 | 20° C | 73% | 1015.2 hPa | 0 mm | - | - | - |
* Rain latest hour (hover to see other rain measurements)
** Current wind speed in m/s (hover to see current wind gust speed)